Location: Grange Rosano
(44.4500°N, 6.9667°E)
Time: 21:18:23
(UTC+00:00)

Lacrosse 4 Rocket - Pass Details

Date: 26 May 2022
Orbit: 541 x 611 km, 68.0° (Epoch: 01 July)

Event Time Altitude Azimuth Distance (km) Brightness Sun altitude
Exits shadow 03:02:59 - 182° (S) 2,813 4.5 -8.3°
Reaches altitude 10° 03:05:26 10° 171° (S) 1,906 3.8 -8.0°
Maximum altitude 03:09:08 29° 111° (ESE) 1,078 3.2 -7.5°
Drops below altitude 10° 03:12:47 10° 51° (NE) 1,881 5.9 -7.0°
Sets 03:15:11 0° 40° (NE) 2,770 7.0 -6.6°
